owner,sensor,date,latitude,longitude,vertical_datum,direction_of_sea_water_velocity,sea_water_speed,upward_sea_water_velocity,qcFlag 
TABS,ioos:station:wmo:42048:1,2004-04-01T00:00:00Z,27.9396,-96.8429,2.0,330.268309,16.51398498,-99999.0,'11111222,11111222,99999999' 
TABS,ioos:station:wmo:42048:1,2004-04-01T00:30:00Z,27.9396,-96.8429,2.0,338.4049505,17.55203692,-99999.0,'11111222,11111222,99999999' 
TABS,ioos:station:wmo:42048:1,2004-04-01T01:00:00Z,27.9396,-96.8429,2.0,346.2824862,21.37984565,-99999.0,'11111222,11111222,99999999' 
TABS,ioos:station:wmo:42048:1,2004-04-01T02:00:00Z,27.9396,-96.8429,2.0,0.068882794,25.03001798,-99999.0,'11111222,11111222,99999999' 
TABS,ioos:station:wmo:42048:1,2004-04-01T02:30:00Z,27.9396,-96.8429,2.0,4.944273308,26.10713696,-99999.0,'11111222,11111222,99999999' 
TABS,ioos:station:wmo:42048:1,2004-04-01T03:00:00Z,27.9396,-96.8429,2.0,13.03432927,32.58964559,-99999.0,'11111222,11111222,99999999' 
TABS,ioos:station:wmo:42048:1,2004-04-01T03:30:00Z,27.9396,-96.8429,2.0,18.78147443,29.81766087,-99999.0,'11111222,11111222,99999999' 
TABS,ioos:station:wmo:42048:1,2004-04-01T04:00:00Z,27.9396,-96.8429,2.0,21.35207947,31.00836178,-99999.0,'11111222,11111222,99999999' 
TABS,ioos:station:wmo:42048:1,2004-04-01T04:30:00Z,27.9396,-96.8429,2.0,22.84424985,29.28714735,-99999.0,'11111222,11111222,99999999' 
TABS,ioos:station:wmo:42048:1,2004-04-01T05:00:00Z,27.9396,-96.8429,2.0,31.24064479,24.85386489,-99999.0,'11111222,11111222,99999999' 
TABS,ioos:station:wmo:42048:1,2004-04-01T05:30:00Z,27.9396,-96.8429,2.0,40.64866646,23.67145961,-99999.0,'11111222,11111222,99999999' 
TABS,ioos:station:wmo:42048:1,2004-04-01T06:00:00Z,27.9396,-96.8429,2.0,43.37024081,27.59539998,-99999.0,'11111222,11111222,99999999' 
TABS,ioos:station:wmo:42048:1,2004-04-01T06:30:00Z,27.9396,-96.8429,2.0,50.04704676,26.36416128,-99999.0,'11111222,11111222,99999999' 
TABS,ioos:station:wmo:42048:1,2004-04-01T07:00:00Z,27.9396,-96.8429,2.0,49.01648941,28.77212714,-99999.0,'11111222,11111222,99999999' 
TABS,ioos:station:wmo:42048:1,2004-04-01T07:30:00Z,27.9396,-96.8429,2.0,53.88657706,27.87642911,-99999.0,'11111222,11111222,99999999' 
TABS,ioos:station:wmo:42048:1,2004-04-01T08:00:00Z,27.9396,-96.8429,2.0,58.57335162,28.65320401,-99999.0,'11111222,11111222,99999999' 
TABS,ioos:station:wmo:42048:1,2004-04-01T08:30:00Z,27.9396,-96.8429,2.0,57.3256855,33.95298661,-99999.0,'11111222,11111222,99999999' 
TABS,ioos:station:wmo:42048:1,2004-04-01T09:00:00Z,27.9396,-96.8429,2.0,54.13723488,37.89385306,-99999.0,'11111222,11111222,99999999' 
TABS,ioos:station:wmo:42048:1,2004-04-01T09:30:00Z,27.9396,-96.8429,2.0,62.57076622,34.6898328,-99999.0,'11111222,11111222,99999999' 
TABS,ioos:station:wmo:42048:1,2004-04-01T10:00:00Z,27.9396,-96.8429,2.0,59.21414854,35.36317859,-99999.0,'11111222,11111222,99999999' 
TABS,ioos:station:wmo:42048:1,2004-04-01T10:30:00Z,27.9396,-96.8429,2.0,63.80474349,37.42361287,-99999.0,'11111222,11111222,99999999' 
TABS,ioos:station:wmo:42048:1,2004-04-01T11:00:00Z,27.9396,-96.8429,2.0,70.46708711,42.41076868,-99999.0,'11111222,11111222,99999999' 
TABS,ioos:station:wmo:42048:1,2004-04-01T11:30:00Z,27.9396,-96.8429,2.0,74.26988827,37.66041158,-99999.0,'11111222,11111222,99999999' 
TABS,ioos:station:wmo:42048:1,2004-04-01T12:00:00Z,27.9396,-96.8429,2.0,74.94957774,36.58495456,-99999.0,'11111222,11111222,99999999' 
TABS,ioos:station:wmo:42048:1,2004-04-01T12:30:00Z,27.9396,-96.8429,2.0,71.70416111,39.08586701,-99999.0,'11111222,11111222,99999999' 
TABS,ioos:station:wmo:42048:1,2004-04-01T13:00:00Z,27.9396,-96.8429,2.0,74.01648045,39.18485677,-99999.0,'11111222,11111222,99999999' 
TABS,ioos:station:wmo:42048:1,2004-04-01T13:30:00Z,27.9396,-96.8429,2.0,66.32889621,46.32779835,-99999.0,'11111222,11111222,99999999' 
TABS,ioos:station:wmo:42048:1,2004-04-01T14:00:00Z,27.9396,-96.8429,2.0,68.10739263,48.97163669,-99999.0,'11111222,11111222,99999999' 
TABS,ioos:station:wmo:42048:1,2004-04-01T14:30:00Z,27.9396,-96.8429,2.0,71.22879844,47.95044213,-99999.0,'11111222,11111222,99999999' 
TABS,ioos:station:wmo:42048:1,2004-04-01T15:00:00Z,27.9396,-96.8429,2.0,74.72082072,47.96543026,-99999.0,'11111222,11111222,99999999' 
TABS,ioos:station:wmo:42048:1,2004-04-01T16:00:00Z,27.9396,-96.8429,2.0,77.48115791,43.78090566,-99999.0,'11111222,11111222,99999999' 
TABS,ioos:station:wmo:42048:1,2004-04-01T16:30:00Z,27.9396,-96.8429,2.0,70.66459094,44.06545699,-99999.0,'11111222,11111222,99999999' 
TABS,ioos:station:wmo:42048:1,2004-04-01T17:00:00Z,27.9396,-96.8429,2.0,69.71998976,42.03581568,-99999.0,'11111222,11111222,99999999' 
TABS,ioos:station:wmo:42048:1,2004-04-01T17:30:00Z,27.9396,-96.8429,2.0,68.26626615,42.47969515,-99999.0,'11111222,11111222,99999999' 
TABS,ioos:station:wmo:42048:1,2004-04-01T18:00:00Z,27.9396,-96.8429,2.0,66.83145129,42.6496483,-99999.0,'11111222,11111222,99999999' 
TABS,ioos:station:wmo:42048:1,2004-04-01T19:00:00Z,27.9396,-96.8429,2.0,65.68834183,42.31229136,-99999.0,'11111222,11111222,99999999' 
TABS,ioos:station:wmo:42048:1,2004-04-01T19:30:00Z,27.9396,-96.8429,2.0,62.47261309,41.80247959,-99999.0,'11111222,11111222,99999999' 
TABS,ioos:station:wmo:42048:1,2004-04-01T20:00:00Z,27.9396,-96.8429,2.0,57.83427421,38.99535485,-99999.0,'11111222,11111222,99999999' 
TABS,ioos:station:wmo:42048:1,2004-04-01T20:30:00Z,27.9396,-96.8429,2.0,53.59927198,39.8193345,-99999.0,'11111222,11111222,99999999' 
TABS,ioos:station:wmo:42048:1,2004-04-01T21:00:00Z,27.9396,-96.8429,2.0,49.163051,37.69632475,-99999.0,'11111222,11111222,99999999' 
TABS,ioos:station:wmo:42048:1,2004-04-01T21:30:00Z,27.9396,-96.8429,2.0,45.35851835,39.56339849,-99999.0,'11111222,11111222,99999999' 
TABS,ioos:station:wmo:42048:1,2004-04-01T22:00:00Z,27.9396,-96.8429,2.0,44.71078986,37.80948162,-99999.0,'11111222,11111222,99999999' 
TABS,ioos:station:wmo:42048:1,2004-04-01T22:30:00Z,27.9396,-96.8429,2.0,42.9420669,36.62347062,-99999.0,'11111222,11111222,99999999' 
TABS,ioos:station:wmo:42048:1,2004-04-01T23:00:00Z,27.9396,-96.8429,2.0,42.33517676,38.93297831,-99999.0,'11111222,11111222,99999999' 
TABS,ioos:station:wmo:42048:1,2004-04-01T23:30:00Z,27.9396,-96.8429,2.0,38.63727196,39.49478573,-99999.0,'11111222,11111222,99999999' 
TABS,ioos:station:wmo:42048:1,2004-04-02T00:00:00Z,27.9396,-96.8429,2.0,32.7913513,41.19433213,-99999.0,'11111222,11111222,99999999' 
TABS,ioos:station:wmo:42048:1,2004-04-02T00:30:00Z,27.9396,-96.8429,2.0,33.15566653,40.13430577,-99999.0,'11111222,11111222,99999999' 
TABS,ioos:station:wmo:42048:1,2004-04-02T01:00:00Z,27.9396,-96.8429,2.0,28.05183176,40.5088262,-99999.0,'11111222,11111222,99999999' 
TABS,ioos:station:wmo:42048:1,2004-04-02T01:30:00Z,27.9396,-96.8429,2.0,33.97135453,44.65112988,-99999.0,'11111222,11111222,99999999' 
TABS,ioos:station:wmo:42048:1,2004-04-02T02:00:00Z,27.9396,-96.8429,2.0,28.68266152,44.42075303,-99999.0,'11111222,11111222,99999999' 
TABS,ioos:station:wmo:42048:1,2004-04-02T02:30:00Z,27.9396,-96.8429,2.0,33.28511228,47.46688214,-99999.0,'11111222,11111222,99999999' 
TABS,ioos:station:wmo:42048:1,2004-04-02T03:00:00Z,27.9396,-96.8429,2.0,28.33682808,48.60404613,-99999.0,'11111222,11111222,99999999' 
TABS,ioos:station:wmo:42048:1,2004-04-02T03:30:00Z,27.9396,-96.8429,2.0,27.70084569,51.67226432,-99999.0,'11111222,11111222,99999999' 
TABS,ioos:station:wmo:42048:1,2004-04-02T04:00:00Z,27.9396,-96.8429,2.0,23.74964942,54.35287113,-99999.0,'11111222,11111222,99999999' 
TABS,ioos:station:wmo:42048:1,2004-04-02T04:30:00Z,27.9396,-96.8429,2.0,23.75983673,57.65679318,-99999.0,'11111222,11111222,99999999' 
TABS,ioos:station:wmo:42048:1,2004-04-02T05:00:00Z,27.9396,-96.8429,2.0,24.13313162,55.96105163,-99999.0,'11111222,11111222,99999999' 
TABS,ioos:station:wmo:42048:1,2004-04-02T05:30:00Z,27.9396,-96.8429,2.0,24.0762398,56.84528213,-99999.0,'11111222,11111222,99999999' 
TABS,ioos:station:wmo:42048:1,2004-04-02T06:00:00Z,27.9396,-96.8429,2.0,32.0914643,58.65186868,-99999.0,'11111222,11111222,99999999' 
TABS,ioos:station:wmo:42048:1,2004-04-02T06:30:00Z,27.9396,-96.8429,2.0,34.39096865,56.9192709,-99999.0,'11111222,11111222,99999999' 
TABS,ioos:station:wmo:42048:1,2004-04-02T07:00:00Z,27.9396,-96.8429,2.0,38.36575077,60.53062448,-99999.0,'11111222,11111222,99999999' 
TABS,ioos:station:wmo:42048:1,2004-04-02T07:30:00Z,27.9396,-96.8429,2.0,41.46240409,60.84935579,-99999.0,'11111222,11111222,99999999' 
TABS,ioos:station:wmo:42048:1,2004-04-02T08:00:00Z,27.9396,-96.8429,2.0,42.82911775,60.10479182,-99999.0,'11111222,11111222,99999999' 
TABS,ioos:station:wmo:42048:1,2004-04-02T08:30:00Z,27.9396,-96.8429,2.0,44.96864831,64.39622427,-99999.0,'11111222,11111222,99999999' 
TABS,ioos:station:wmo:42048:1,2004-04-02T09:00:00Z,27.9396,-96.8429,2.0,46.59072628,65.46795934,-99999.0,'11111222,11111222,99999999' 
TABS,ioos:station:wmo:42048:1,2004-04-02T09:30:00Z,27.9396,-96.8429,2.0,47.68800584,61.21794671,-99999.0,'11111222,11111222,99999999' 
TABS,ioos:station:wmo:42048:1,2004-04-02T10:00:00Z,27.9396,-96.8429,2.0,46.97041639,60.46509406,-99999.0,'11111222,11111222,99999999' 
TABS,ioos:station:wmo:42048:1,2004-04-02T10:30:00Z,27.9396,-96.8429,2.0,48.22741311,59.15845248,-99999.0,'11111222,11111222,99999999' 
TABS,ioos:station:wmo:42048:1,2004-04-02T11:00:00Z,27.9396,-96.8429,2.0,50.7262185,54.49996422,-99999.0,'11111222,11111222,99999999' 
TABS,ioos:station:wmo:42048:1,2004-04-02T11:30:00Z,27.9396,-96.8429,2.0,49.7775744,53.48754247,-99999.0,'11111222,11111222,99999999' 
TABS,ioos:station:wmo:42048:1,2004-04-02T12:00:00Z,27.9396,-96.8429,2.0,51.64833954,49.96070856,-99999.0,'11111222,11111222,99999999' 
TABS,ioos:station:wmo:42048:1,2004-04-02T12:30:00Z,27.9396,-96.8429,2.0,53.97526411,49.49538362,-99999.0,'11111222,11111222,99999999' 
TABS,ioos:station:wmo:42048:1,2004-04-02T13:00:00Z,27.9396,-96.8429,2.0,53.30300387,47.74221717,-99999.0,'11111222,11111222,99999999' 
TABS,ioos:station:wmo:42048:1,2004-04-02T13:30:00Z,27.9396,-96.8429,2.0,52.31063,47.40084915,-99999.0,'11111222,11111222,99999999' 
TABS,ioos:station:wmo:42048:1,2004-04-02T14:00:00Z,27.9396,-96.8429,2.0,53.09400947,47.51000947,-99999.0,'11111222,11111222,99999999' 
TABS,ioos:station:wmo:42048:1,2004-04-02T14:30:00Z,27.9396,-96.8429,2.0,53.03707547,44.3040585,-99999.0,'11111222,11111222,99999999' 
TABS,ioos:station:wmo:42048:1,2004-04-02T15:00:00Z,27.9396,-96.8429,2.0,52.15191617,43.10828343,-99999.0,'11111222,11111222,99999999' 
TABS,ioos:station:wmo:42048:1,2004-04-02T15:30:00Z,27.9396,-96.8429,2.0,50.29383594,42.84248476,-99999.0,'11111222,11111222,99999999' 
TABS,ioos:station:wmo:42048:1,2004-04-02T16:00:00Z,27.9396,-96.8429,2.0,48.06063286,43.70496768,-99999.0,'11111222,11111222,99999999' 
TABS,ioos:station:wmo:42048:1,2004-04-02T16:30:00Z,27.9396,-96.8429,2.0,51.58566264,42.66550129,-99999.0,'11111222,11111222,99999999' 
TABS,ioos:station:wmo:42048:1,2004-04-02T17:00:00Z,27.9396,-96.8429,2.0,45.7460203,39.65083732,-99999.0,'11111222,11111222,99999999' 
TABS,ioos:station:wmo:42048:1,2004-04-02T17:30:00Z,27.9396,-96.8429,2.0,50.43836525,37.30516318,-99999.0,'11111222,11111222,99999999' 
TABS,ioos:station:wmo:42048:1,2004-04-02T18:00:00Z,27.9396,-96.8429,2.0,46.21219305,38.10744022,-99999.0,'11111222,11111222,99999999' 
TABS,ioos:station:wmo:42048:1,2004-04-02T18:30:00Z,27.9396,-96.8429,2.0,48.29011291,36.10073268,-99999.0,'11111222,11111222,99999999' 
TABS,ioos:station:wmo:42048:1,2004-04-02T19:00:00Z,27.9396,-96.8429,2.0,39.49676599,36.57042521,-99999.0,'11111222,11111222,99999999' 
TABS,ioos:station:wmo:42048:1,2004-04-02T19:30:00Z,27.9396,-96.8429,2.0,41.05378831,36.67974509,-99999.0,'11111222,11111222,99999999' 
TABS,ioos:station:wmo:42048:1,2004-04-02T20:00:00Z,27.9396,-96.8429,2.0,46.808604,36.07334334,-99999.0,'11111222,11111222,99999999' 
TABS,ioos:station:wmo:42048:1,2004-04-02T20:30:00Z,27.9396,-96.8429,2.0,35.1231085,34.04982526,-99999.0,'11111222,11111222,99999999' 
TABS,ioos:station:wmo:42048:1,2004-04-02T21:00:00Z,27.9396,-96.8429,2.0,35.33582369,36.60312145,-99999.0,'11111222,11111222,99999999' 
TABS,ioos:station:wmo:42048:1,2004-04-02T21:30:00Z,27.9396,-96.8429,2.0,39.01554122,34.72434305,-99999.0,'11111222,11111222,99999999' 
TABS,ioos:station:wmo:42048:1,2004-04-02T22:00:00Z,27.9396,-96.8429,2.0,37.25559441,35.36680082,-99999.0,'11111222,11111222,99999999' 
TABS,ioos:station:wmo:42048:1,2004-04-02T22:30:00Z,27.9396,-96.8429,2.0,35.46714363,36.76101876,-99999.0,'11111222,11111222,99999999' 
TABS,ioos:station:wmo:42048:1,2004-04-02T23:00:00Z,27.9396,-96.8429,2.0,35.5971894,39.25568621,-99999.0,'11111222,11111222,99999999' 
TABS,ioos:station:wmo:42048:1,2004-04-03T00:00:00Z,27.9396,-96.8429,2.0,20.02195842,31.63174513,-99999.0,'11111222,11111222,99999999' 
TABS,ioos:station:wmo:42048:1,2004-04-03T00:30:00Z,27.9396,-96.8429,2.0,19.40595202,33.40793469,-99999.0,'11111222,11111222,99999999' 
TABS,ioos:station:wmo:42048:1,2004-04-03T01:00:00Z,27.9396,-96.8429,2.0,16.42235955,28.72171478,-99999.0,'11111222,11111222,99999999' 
TABS,ioos:station:wmo:42048:1,2004-04-03T01:30:00Z,27.9396,-96.8429,2.0,16.04917772,32.66302191,-99999.0,'11111222,11111222,99999999' 
TABS,ioos:station:wmo:42048:1,2004-04-03T02:00:00Z,27.9396,-96.8429,2.0,11.8715548,29.02069779,-99999.0,'11111222,11111222,99999999' 
TABS,ioos:station:wmo:42048:1,2004-04-03T02:30:00Z,27.9396,-96.8429,2.0,8.542777455,23.96588409,-99999.0,'11111222,11111222,99999999' 
TABS,ioos:station:wmo:42048:1,2004-04-03T03:00:00Z,27.9396,-96.8429,2.0,7.586951491,24.01018326,-99999.0,'11111222,11111222,99999999' 
TABS,ioos:station:wmo:42048:1,2004-04-03T03:30:00Z,27.9396,-96.8429,2.0,357.4026505,26.03675287,-99999.0,'11111222,11111222,99999999' 
TABS,ioos:station:wmo:42048:1,2004-04-03T04:00:00Z,27.9396,-96.8429,2.0,1.966053565,23.90406869,-99999.0,'11111222,11111222,99999999' 
TABS,ioos:station:wmo:42048:1,2004-04-03T04:30:00Z,27.9396,-96.8429,2.0,359.3118698,24.9718021,-99999.0,'11111222,11144222,99999999' 
TABS,ioos:station:wmo:42048:1,2004-04-03T05:00:00Z,27.9396,-96.8429,2.0,353.157453,16.36658181,-99999.0,'11111222,11111222,99999999' 
TABS,ioos:station:wmo:42048:1,2004-04-03T05:30:00Z,27.9396,-96.8429,2.0,4.119856772,15.59028223,-99999.0,'11111222,11111222,99999999' 
TABS,ioos:station:wmo:42048:1,2004-04-03T06:00:00Z,27.9396,-96.8429,2.0,352.2813626,19.50675011,-99999.0,'11111222,11111222,99999999' 
TABS,ioos:station:wmo:42048:1,2004-04-03T06:30:00Z,27.9396,-96.8429,2.0,3.576536471,23.24526834,-99999.0,'11111222,11111222,99999999' 
TABS,ioos:station:wmo:42048:1,2004-04-03T07:30:00Z,27.9396,-96.8429,2.0,4.230158452,26.30164444,-99999.0,'11111222,11111222,99999999' 
TABS,ioos:station:wmo:42048:1,2004-04-03T08:00:00Z,27.9396,-96.8429,2.0,11.8185652,25.19407073,-99999.0,'11111222,11111222,99999999' 
TABS,ioos:station:wmo:42048:1,2004-04-03T09:00:00Z,27.9396,-96.8429,2.0,30.92076777,29.61952903,-99999.0,'11111222,11111222,99999999' 
TABS,ioos:station:wmo:42048:1,2004-04-03T09:30:00Z,27.9396,-96.8429,2.0,28.28224532,33.28316391,-99999.0,'11111222,11111222,99999999' 
TABS,ioos:station:wmo:42048:1,2004-04-03T10:00:00Z,27.9396,-96.8429,2.0,37.40055449,32.6153982,-99999.0,'11111222,11111222,99999999' 
TABS,ioos:station:wmo:42048:1,2004-04-03T10:30:00Z,27.9396,-96.8429,2.0,27.69130013,30.49244005,-99999.0,'11111222,11111222,99999999' 
TABS,ioos:station:wmo:42048:1,2004-04-03T11:30:00Z,27.9396,-96.8429,2.0,34.7779605,27.61240482,-99999.0,'11111222,11111222,99999999' 
TABS,ioos:station:wmo:42048:1,2004-04-03T12:30:00Z,27.9396,-96.8429,2.0,39.78117696,23.94289874,-99999.0,'11111222,11111222,99999999' 
TABS,ioos:station:wmo:42048:1,2004-04-03T13:00:00Z,27.9396,-96.8429,2.0,39.20732228,21.57795171,-99999.0,'11111222,11111222,99999999' 
TABS,ioos:station:wmo:42048:1,2004-04-03T13:30:00Z,27.9396,-96.8429,2.0,45.86255518,16.44209537,-99999.0,'11111222,11111222,99999999' 
TABS,ioos:station:wmo:42048:1,2004-04-03T14:00:00Z,27.9396,-96.8429,2.0,66.26503573,13.04323963,-99999.0,'11111222,11111222,99999999' 
TABS,ioos:station:wmo:42048:1,2004-04-03T14:30:00Z,27.9396,-96.8429,2.0,58.62039807,12.52144161,-99999.0,'11111222,11111222,99999999' 
TABS,ioos:station:wmo:42048:1,2004-04-03T15:00:00Z,27.9396,-96.8429,2.0,49.13215582,13.05176233,-99999.0,'11111222,11111222,99999999' 
TABS,ioos:station:wmo:42048:1,2004-04-03T15:30:00Z,27.9396,-96.8429,2.0,96.34017692,8.783723584,-99999.0,'11133222,11111222,99999999' 
TABS,ioos:station:wmo:42048:1,2004-04-03T16:00:00Z,27.9396,-96.8429,2.0,90.14234914,8.050024845,-99999.0,'11133222,11111222,99999999' 
TABS,ioos:station:wmo:42048:1,2004-04-03T16:30:00Z,27.9396,-96.8429,2.0,98.76345516,7.548118971,-99999.0,'11133222,11111222,99999999' 
TABS,ioos:station:wmo:42048:1,2004-04-03T17:00:00Z,27.9396,-96.8429,2.0,105.8963671,6.425729531,-99999.0,'11133222,11111222,99999999' 
TABS,ioos:station:wmo:42048:1,2004-04-03T17:30:00Z,27.9396,-96.8429,2.0,132.9815003,3.212257773,-99999.0,'11133222,11111222,99999999' 
TABS,ioos:station:wmo:42048:1,2004-04-03T18:00:00Z,27.9396,-96.8429,2.0,130.4751369,1.971902635,-99999.0,'11133222,11111222,99999999' 
TABS,ioos:station:wmo:42048:1,2004-04-03T18:30:00Z,27.9396,-96.8429,2.0,58.89724905,1.413152504,-99999.0,'11133222,11111222,99999999' 
TABS,ioos:station:wmo:42048:1,2004-04-03T19:00:00Z,27.9396,-96.8429,2.0,180.2425662,2.360021186,-99999.0,'11133222,11111222,99999999' 
TABS,ioos:station:wmo:42048:1,2004-04-03T19:30:00Z,27.9396,-96.8429,2.0,214.3958508,1.575468184,-99999.0,'11133222,11111222,99999999' 
TABS,ioos:station:wmo:42048:1,2004-04-03T20:00:00Z,27.9396,-96.8429,2.0,253.3861825,4.476885078,-99999.0,'11133222,11111222,99999999' 
TABS,ioos:station:wmo:42048:1,2004-04-03T20:30:00Z,27.9396,-96.8429,2.0,290.2187568,4.369221899,-99999.0,'11133222,11111222,99999999' 
TABS,ioos:station:wmo:42048:1,2004-04-03T21:00:00Z,27.9396,-96.8429,2.0,314.6344481,5.53675898,-99999.0,'11133222,11111222,99999999' 
TABS,ioos:station:wmo:42048:1,2004-04-03T21:30:00Z,27.9396,-96.8429,2.0,283.485066,6.046693311,-99999.0,'11133222,11111222,99999999' 
TABS,ioos:station:wmo:42048:1,2004-04-03T22:00:00Z,27.9396,-96.8429,2.0,260.8705069,9.328156302,-99999.0,'11133222,11111222,99999999' 
TABS,ioos:station:wmo:42048:1,2004-04-03T22:30:00Z,27.9396,-96.8429,2.0,281.383948,12.21020065,-99999.0,'11111222,11111222,99999999' 
TABS,ioos:station:wmo:42048:1,2004-04-03T23:00:00Z,27.9396,-96.8429,2.0,318.0201471,12.08001656,-99999.0,'11111222,11111222,99999999' 
TABS,ioos:station:wmo:42048:1,2004-04-03T23:30:00Z,27.9396,-96.8429,2.0,327.7701841,15.67536921,-99999.0,'11111222,11111222,99999999' 
TABS,ioos:station:wmo:42048:1,2004-04-04T00:00:00Z,27.9396,-96.8429,2.0,336.9264785,14.46737709,-99999.0,'11111222,11111222,99999999' 
TABS,ioos:station:wmo:42048:1,2004-04-04T00:30:00Z,27.9396,-96.8429,2.0,340.8288974,18.45341432,-99999.0,'11111222,11111222,99999999' 
TABS,ioos:station:wmo:42048:1,2004-04-04T01:00:00Z,27.9396,-96.8429,2.0,355.3183432,20.94990453,-99999.0,'11111222,11111222,99999999' 
TABS,ioos:station:wmo:42048:1,2004-04-04T01:30:00Z,27.9396,-96.8429,2.0,356.0474851,20.88969124,-99999.0,'11111222,11111222,99999999' 
TABS,ioos:station:wmo:42048:1,2004-04-04T02:00:00Z,27.9396,-96.8429,2.0,358.8667671,23.25455009,-99999.0,'11111222,11111222,99999999' 
TABS,ioos:station:wmo:42048:1,2004-04-04T02:30:00Z,27.9396,-96.8429,2.0,3.072608729,20.70976823,-99999.0,'11111222,11111222,99999999' 
TABS,ioos:station:wmo:42048:1,2004-04-04T03:00:00Z,27.9396,-96.8429,2.0,8.839885617,23.75212412,-99999.0,'11111222,11111222,99999999' 
TABS,ioos:station:wmo:42048:1,2004-04-04T03:30:00Z,27.9396,-96.8429,2.0,15.67457113,22.65238398,-99999.0,'11111222,11111222,99999999' 
TABS,ioos:station:wmo:42048:1,2004-04-04T04:00:00Z,27.9396,-96.8429,2.0,20.92535645,22.70762427,-99999.0,'11111222,11111222,99999999' 
TABS,ioos:station:wmo:42048:1,2004-04-04T04:30:00Z,27.9396,-96.8429,2.0,25.34159508,23.03675324,-99999.0,'11111222,11111222,99999999' 
TABS,ioos:station:wmo:42048:1,2004-04-04T05:00:00Z,27.9396,-96.8429,2.0,23.32989696,26.38740988,-99999.0,'11111222,11111222,99999999' 
TABS,ioos:station:wmo:42048:1,2004-04-04T05:30:00Z,27.9396,-96.8429,2.0,32.31899016,25.96185664,-99999.0,'11111222,11111222,99999999' 
TABS,ioos:station:wmo:42048:1,2004-04-04T06:00:00Z,27.9396,-96.8429,2.0,35.90280851,24.999562,-99999.0,'11111222,11111222,99999999' 
TABS,ioos:station:wmo:42048:1,2004-04-04T06:30:00Z,27.9396,-96.8429,2.0,38.20234506,25.03076707,-99999.0,'11111222,11111222,99999999' 
TABS,ioos:station:wmo:42048:1,2004-04-04T07:00:00Z,27.9396,-96.8429,2.0,39.94669692,27.05299429,-99999.0,'11111222,11111222,99999999' 
TABS,ioos:station:wmo:42048:1,2004-04-04T07:30:00Z,27.9396,-96.8429,2.0,47.70116948,25.95844564,-99999.0,'11111222,11111222,99999999' 
TABS,ioos:station:wmo:42048:1,2004-04-04T08:00:00Z,27.9396,-96.8429,2.0,42.49614809,26.86742637,-99999.0,'11111222,11111222,99999999' 
TABS,ioos:station:wmo:42048:1,2004-04-04T08:30:00Z,27.9396,-96.8429,2.0,43.33944493,30.74377335,-99999.0,'11111222,11111222,99999999' 
TABS,ioos:station:wmo:42048:1,2004-04-04T09:00:00Z,27.9396,-96.8429,2.0,58.12442543,28.55641609,-99999.0,'11111222,11111222,99999999' 
TABS,ioos:station:wmo:42048:1,2004-04-04T10:00:00Z,27.9396,-96.8429,2.0,57.11780782,28.32858097,-99999.0,'11111222,11111222,99999999' 
TABS,ioos:station:wmo:42048:1,2004-04-04T10:30:00Z,27.9396,-96.8429,2.0,54.7834306,29.25417748,-99999.0,'11111222,11111222,99999999' 
TABS,ioos:station:wmo:42048:1,2004-04-04T11:00:00Z,27.9396,-96.8429,2.0,53.11027351,28.77000174,-99999.0,'11111222,11111222,99999999' 
TABS,ioos:station:wmo:42048:1,2004-04-04T11:30:00Z,27.9396,-96.8429,2.0,58.03551939,29.75096805,-99999.0,'11111222,11111222,99999999' 
TABS,ioos:station:wmo:42048:1,2004-04-04T12:00:00Z,27.9396,-96.8429,2.0,62.06464162,31.22891289,-99999.0,'11111222,11111222,99999999' 
TABS,ioos:station:wmo:42048:1,2004-04-04T12:30:00Z,27.9396,-96.8429,2.0,63.69291032,30.79991234,-99999.0,'11111222,11111222,99999999' 
TABS,ioos:station:wmo:42048:1,2004-04-04T13:00:00Z,27.9396,-96.8429,2.0,64.79604303,31.63139738,-99999.0,'11111222,11111222,99999999' 
TABS,ioos:station:wmo:42048:1,2004-04-04T13:30:00Z,27.9396,-96.8429,2.0,64.83710402,27.96369432,-99999.0,'11111222,11111222,99999999' 
TABS,ioos:station:wmo:42048:1,2004-04-04T14:00:00Z,27.9396,-96.8429,2.0,70.74770214,24.38364206,-99999.0,'11111222,11111222,99999999' 
TABS,ioos:station:wmo:42048:1,2004-04-04T14:30:00Z,27.9396,-96.8429,2.0,70.22603984,23.41041008,-99999.0,'11111222,11111222,99999999' 
TABS,ioos:station:wmo:42048:1,2004-04-04T15:00:00Z,27.9396,-96.8429,2.0,73.80912789,20.83641524,-99999.0,'11111222,11111222,99999999' 
TABS,ioos:station:wmo:42048:1,2004-04-04T16:00:00Z,27.9396,-96.8429,2.0,71.42324666,16.60517088,-99999.0,'11111222,11111222,99999999' 
TABS,ioos:station:wmo:42048:1,2004-04-04T16:30:00Z,27.9396,-96.8429,2.0,68.282407,12.70157471,-99999.0,'11111222,11111222,99999999' 
TABS,ioos:station:wmo:42048:1,2004-04-04T17:00:00Z,27.9396,-96.8429,2.0,60.37101488,9.203396112,-99999.0,'11133222,11111222,99999999' 
TABS,ioos:station:wmo:42048:1,2004-04-04T17:30:00Z,27.9396,-96.8429,2.0,73.24429025,8.74112693,-99999.0,'11133222,11111222,99999999' 
TABS,ioos:station:wmo:42048:1,2004-04-04T18:00:00Z,27.9396,-96.8429,2.0,47.35561942,4.989318591,-99999.0,'11133222,11111222,99999999' 
TABS,ioos:station:wmo:42048:1,2004-04-04T18:30:00Z,27.9396,-96.8429,2.0,0.417201972,6.870181948,-99999.0,'11133222,11111222,99999999' 
TABS,ioos:station:wmo:42048:1,2004-04-04T19:00:00Z,27.9396,-96.8429,2.0,16.58751023,3.923263947,-99999.0,'11133222,11111222,99999999' 
TABS,ioos:station:wmo:42048:1,2004-04-04T19:30:00Z,27.9396,-96.8429,2.0,325.9173434,2.426870413,-99999.0,'11133222,11111222,99999999' 
TABS,ioos:station:wmo:42048:1,2004-04-04T20:30:00Z,27.9396,-96.8429,2.0,321.682095,7.596426792,-99999.0,'11133222,11111222,99999999' 
TABS,ioos:station:wmo:42048:1,2004-04-04T21:30:00Z,27.9396,-96.8429,2.0,321.0517768,8.987914107,-99999.0,'11133222,11111222,99999999' 
TABS,ioos:station:wmo:42048:1,2004-04-04T22:00:00Z,27.9396,-96.8429,2.0,310.9925205,10.01591234,-99999.0,'11111222,11111222,99999999' 